Dundee, United Kingdom

12:34 AM GMT on December 18, 2017 (GMT +0000)
Dundee

Weather History for EGPN - May, 2013

Change the Weather History Date:

Friday, May 10, 2013

  Actual Average Record
Temperature  
Mean Temperature 52 °F -  
Max Temperature 57 °F 58 °F 68 °F (2006)
Min Temperature 46 °F 48 °F 41 °F (2012)
Degree Days  
Heating Degree Days 14    
Growing Degree Days 2 (Base 50)    
Moisture  
Dew Point 44 °F    
Average Humidity 74    
Maximum Humidity 88    
Minimum Humidity 55    
Precipitation  
Precipitation 0.00 in - - ()
Sea Level Pressure  
Sea Level Pressure 29.51 in    
Wind  
Wind Speed 12 mph ()    
Max Wind Speed 26 mph    
Max Gust Speed 34 mph    
Visibility 6.2 miles    
Events Rain    
Averages and records for this station are not official NWS values.
T = Trace of Precipitation, MM = Missing Value Source: Averaged Metar Reports

Daily Weather History Graph

Daily Weather History Graph

Search for Another Location

Airport or City:

Trip Planner

Search our weather history database for the weather conditions in past years. The results will help you decide how hot, cold, wet, or windy it might be!

Date:

Astronomy

May. 10, 2013 Rise Set
Actual Time 5:06 AM BST 9:11 PM BST
Civil Twilight 4:17 AM BST 10:01 PM BST
Nautical Twilight 3:04 AM BST 11:15 PM BST
Astronomical Twilight 1:40 AM BST 12:36 AM BST
Moon 5:21 AM BST (5/10) 9:52 PM BST (5/10)
Length of Visible Light 17h 43m
Length of Day
16h 05m
New Moon, 0% of the Moon is Illuminated
May 10
New Moon
May 18
First Quarter
May 25
Full
May 31
Last Quarter
Jun 8
New

Hourly Weather History & Observations

Time (BST) Temp. Windchill Dew Point Humidity Pressure Visibility Wind Dir Wind Speed Gust Speed Precip Events Conditions
7:50 AM 48.2 °F - 42.8 °F 82% 29.44 in 6.2 mi WNW 8.1 mph - N/A   Partly Cloudy
8:20 AM 50.0 °F - 44.6 °F 82% 29.44 in 6.2 mi West 8.1 mph - N/A   Partly Cloudy
8:50 AM 51.8 °F - 42.8 °F 71% 29.44 in 6.2 mi West 11.5 mph - N/A   Partly Cloudy
9:20 AM 53.6 °F - 42.8 °F 67% 29.47 in 6.2 mi West 10.4 mph - N/A   Partly Cloudy
9:50 AM 55.4 °F - 42.8 °F 63% 29.47 in 6.2 mi West 11.5 mph - N/A   Partly Cloudy
10:20 AM 57.2 °F - 42.8 °F 59% 29.47 in 6.2 mi West 10.4 mph - N/A   Partly Cloudy
10:50 AM 55.4 °F - 41.0 °F 58% 29.47 in 6.2 mi West 10.4 mph - N/A   Partly Cloudy
11:20 AM 57.2 °F - 41.0 °F 55% 29.47 in 6.2 mi West 10.4 mph - N/A   Scattered Clouds
11:50 AM 55.4 °F - 46.4 °F 72% 29.50 in 6.2 mi SW 13.8 mph - N/A   Scattered Clouds
12:20 PM 55.4 °F - 44.6 °F 67% 29.50 in 6.2 mi WSW 9.2 mph - N/A   Scattered Clouds
12:50 PM 53.6 °F - 41.0 °F 62% 29.50 in 6.2 mi West 16.1 mph 34.5 mph N/A Rain Light Rain Showers
1:20 PM 57.2 °F - 46.4 °F 67% 29.50 in 6.2 mi SW 8.1 mph 23.0 mph N/A   Scattered Clouds
1:50 PM 57.2 °F - 44.6 °F 63% 29.50 in 6.2 mi WSW 19.6 mph - N/A   Scattered Clouds
2:20 PM 57.2 °F - 46.4 °F 67% 29.53 in 6.2 mi WSW 21.9 mph - N/A   Scattered Clouds
2:50 PM 55.4 °F - 46.4 °F 72% 29.53 in 6.2 mi SW 19.6 mph - N/A   Scattered Clouds
3:20 PM 55.4 °F - 46.4 °F 72% 29.53 in 6.2 mi SW 19.6 mph - N/A   Scattered Clouds
3:50 PM 51.8 °F - 46.4 °F 82% 29.53 in 6.2 mi WSW 18.4 mph - N/A Rain Light Rain
4:50 PM 50.0 °F - 46.4 °F 87% 29.56 in 6.2 mi SW 17.3 mph - N/A Rain Light Rain
5:20 PM 50.0 °F - 46.4 °F 87% 29.53 in 6.2 mi SW 16.1 mph - N/A Rain Light Rain
6:50 PM 51.8 °F - 46.4 °F 82% 29.53 in 6.2 mi SW 15.0 mph - N/A   Scattered Clouds
7:20 PM 51.8 °F - 48.2 °F 88% 29.53 in 6.2 mi SW 15.0 mph - N/A   Scattered Clouds
8:20 PM 50.0 °F - 46.4 °F 87% 29.56 in 6.2 mi WSW 26.5 mph - N/A Rain Light Rain
8:50 PM 48.2 °F - 42.8 °F 82% 29.56 in 6.2 mi WSW 24.2 mph - N/A   Scattered Clouds
9:20 PM 46.4 °F 39.8 °F 42.8 °F 87% 29.59 in 6.2 mi West 16.1 mph - N/A   Scattered Clouds
9:50 PM 46.4 °F 39.0 °F 41.0 °F 81% 29.59 in 6.2 mi WSW 19.6 mph - N/A   Partly Cloudy